Location: 22
(39.7117°N, 89.5929°W)
Time: 05:41:02
(UTC-05:00)

Vanguard 1 Rocket - Pass Details

Date: 09 February 2023
Orbit: 652 x 4223 km, 34.3° (Epoch: 26 March)

Event Time Altitude Azimuth Distance (km) Brightness Sun altitude
Rises 16:23:21 0° 280° (W) 5,758 12.4 10.5°
Reaches altitude 10° 16:26:43 10° 274° (W) 5,149 12.4 9.9°
Maximum altitude 16:42:03 45° 209° (SSW) 4,353 11.6 7.3°
Drops below altitude 10° 17:05:06 10° 146° (SE) 7,420 11.9 3.2°
Sets 17:11:24 0° 141° (SE) 8,389 12.1 2.1°
